RYR4TT EGPH-LZIB

Flight info

Callsign RYR4TT
Flight time N/A
Altitude 37000
Route TLA Y96 OTBUN DCT LONAM DCT POVEL DCT OMELO DCT EVIKU DCT BNO DCT ODNEM/N0311F130 A4 BERVA
Aircraft B38M/M-SDE1FGHILORVWXY/HB1

Departure

Time 2026-05-01 12:20
Airport Edinburgh Airport (EGPH)

Arrival

Time N/A
Airport M. R. Štefánik Airport (LZIB)
Time Latitude Longitude Altitude Speed Heading
2026-05-01 11:50 55.95019 -3.36015 104 ft 0 kts 244°
2026-05-01 12:12 55.95025 -3.35994 104 ft 2 kts 244°
2026-05-01 12:12 55.95031 -3.35970 105 ft 2 kts 244°
2026-05-01 12:12 55.95038 -3.35946 105 ft 2 kts 244°
2026-05-01 12:13 55.95044 -3.35922 106 ft 2 kts 244°
2026-05-01 12:13 55.95050 -3.35899 106 ft 2 kts 244°
2026-05-01 12:13 55.95055 -3.35873 106 ft 2 kts 277°
2026-05-01 12:13 55.95052 -3.35855 106 ft 0 kts 297°
2026-05-01 12:14 55.95049 -3.35844 107 ft 0 kts 300°
2026-05-01 12:14 55.95048 -3.35844 107 ft 0 kts 300°
2026-05-01 12:15 55.95049 -3.35845 107 ft 0 kts 300°
2026-05-01 12:16 55.95051 -3.35853 106 ft 0 kts 300°
2026-05-01 12:16 55.95059 -3.35878 106 ft 4 kts 298°
2026-05-01 12:16 55.95083 -3.35961 105 ft 11 kts 296°
2026-05-01 12:16 55.95114 -3.36107 104 ft 11 kts 289°
2026-05-01 12:17 55.95167 -3.36159 104 ft 9 kts 25°
2026-05-01 12:17 55.95206 -3.36064 104 ft 10 kts 59°
2026-05-01 12:17 55.95253 -3.35929 104 ft 15 kts 58°
2026-05-01 12:17 55.95315 -3.35748 105 ft 19 kts 59°
2026-05-01 12:18 55.95390 -3.35530 103 ft 20 kts 59°
2026-05-01 12:18 55.95450 -3.35403 104 ft 10 kts 10°
2026-05-01 12:18 55.95506 -3.35450 102 ft 8 kts 326°
2026-05-01 12:18 55.95562 -3.35514 101 ft 10 kts 325°
2026-05-01 12:19 55.95557 -3.35604 101 ft 7 kts 239°
2026-05-01 12:19 55.95554 -3.35611 101 ft 0 kts 237°
2026-05-01 12:19 55.95554 -3.35612 101 ft 0 kts 237°
2026-05-01 12:19 55.95441 -3.35947 102 ft 65 kts 239°
2026-05-01 12:20 55.95089 -3.36989 101 ft 126 kts 239°
2026-05-01 12:20 55.94551 -3.38564 152 ft 168 kts 239°
2026-05-01 12:20 55.93915 -3.40422 553 ft 185 kts 238°
2026-05-01 12:20 55.93213 -3.42409 1216 ft 192 kts 237°
2026-05-01 12:21 55.92484 -3.44390 1958 ft 188 kts 235°
2026-05-01 12:21 55.91773 -3.46394 2394 ft 198 kts 238°
2026-05-01 12:21 55.91057 -3.48601 2689 ft 215 kts 238°
2026-05-01 12:21 55.90261 -3.51006 2938 ft 236 kts 238°
2026-05-01 12:22 55.89422 -3.53559 3441 ft 247 kts 238°
2026-05-01 12:22 55.88553 -3.56231 4069 ft 254 kts 239°
2026-05-01 12:22 55.87581 -3.58825 4702 ft 258 kts 225°
2026-05-01 12:22 55.86164 -3.60591 5435 ft 256 kts 201°
2026-05-01 12:23 55.84403 -3.61241 5951 ft 264 kts 182°
2026-05-01 12:23 55.82567 -3.60710 6495 ft 273 kts 162°
2026-05-01 12:23 55.80935 -3.59160 7333 ft 273 kts 147°
2026-05-01 12:23 55.79580 -3.56778 8072 ft 278 kts 127°
2026-05-01 12:24 55.78687 -3.53779 8848 ft 278 kts 120°
2026-05-01 12:24 55.77743 -3.50949 9486 ft 274 kts 136°
2026-05-01 12:24 55.76240 -3.48969 10051 ft 272 kts 160°
2026-05-01 12:24 55.74432 -3.47982 10473 ft 280 kts 170°
2026-05-01 12:25 55.72468 -3.47263 10612 ft 300 kts 170°
2026-05-01 12:25 55.68253 -3.45282 11223 ft 326 kts 165°
2026-05-01 12:25 55.66078 -3.44089 11748 ft 331 kts 165°
2026-05-01 12:26 55.63916 -3.42883 12371 ft 332 kts 165°
2026-05-01 12:26 55.59477 -3.40442 13517 ft 337 kts 165°
2026-05-01 12:26 55.57269 -3.39243 14086 ft 339 kts 165°
2026-05-01 12:27 55.55026 -3.37939 14648 ft 342 kts 161°
2026-05-01 12:27 55.51042 -3.33226 15694 ft 356 kts 134°
2026-05-01 12:28 55.48813 -3.25334 16698 ft 373 kts 108°
2026-05-01 12:28 55.48287 -3.20893 17174 ft 377 kts 104°
2026-05-01 12:28 55.47390 -3.11744 18108 ft 381 kts 104°
2026-05-01 12:29 55.46916 -3.07140 18546 ft 383 kts 105°
2026-05-01 12:29 55.46343 -3.02607 18999 ft 384 kts 109°
2026-05-01 12:29 55.45051 -2.93468 19861 ft 389 kts 106°
2026-05-01 12:30 55.43999 -2.84051 20679 ft 394 kts 104°
2026-05-01 12:30 55.43496 -2.79356 21053 ft 396 kts 104°
2026-05-01 12:30 55.42986 -2.74590 21454 ft 398 kts 104°
2026-05-01 12:31 55.42474 -2.69804 21844 ft 400 kts 104°
2026-05-01 12:31 55.41967 -2.65063 22194 ft 402 kts 104°
2026-05-01 12:31 55.41452 -2.60244 22567 ft 404 kts 104°
2026-05-01 12:31 55.40939 -2.55441 22946 ft 405 kts 104°
2026-05-01 12:32 55.40418 -2.50579 23276 ft 408 kts 104°
2026-05-01 12:32 55.39358 -2.40772 23950 ft 412 kts 104°
2026-05-01 12:32 55.38821 -2.35848 24288 ft 414 kts 104°
2026-05-01 12:33 55.38272 -2.30855 24599 ft 416 kts 105°
2026-05-01 12:33 55.37722 -2.25911 24957 ft 417 kts 105°
2026-05-01 12:33 55.37160 -2.20895 25259 ft 419 kts 105°
2026-05-01 12:33 55.36591 -2.15868 25564 ft 421 kts 105°
2026-05-01 12:34 55.36019 -2.10860 25865 ft 423 kts 105°
2026-05-01 12:34 55.35450 -2.05905 26154 ft 425 kts 105°
2026-05-01 12:34 55.34858 -2.00803 26444 ft 426 kts 105°
2026-05-01 12:34 55.34264 -1.95695 26728 ft 428 kts 105°
2026-05-01 12:35 55.33664 -1.90554 26990 ft 431 kts 105°
2026-05-01 12:35 55.33087 -1.85624 27293 ft 431 kts 105°
2026-05-01 12:35 55.32472 -1.80380 27560 ft 433 kts 105°
2026-05-01 12:35 55.31866 -1.75251 27790 ft 436 kts 105°
2026-05-01 12:36 55.31030 -1.70173 28043 ft 433 kts 114°
2026-05-01 12:36 55.29795 -1.65462 28333 ft 431 kts 121°
2026-05-01 12:36 55.28316 -1.60893 28588 ft 431 kts 124°
2026-05-01 12:36 55.26742 -1.56385 28815 ft 432 kts 124°
2026-05-01 12:37 55.25153 -1.51934 29032 ft 434 kts 125°
2026-05-01 12:37 55.23559 -1.47486 29255 ft 436 kts 125°
2026-05-01 12:37 55.21952 -1.43008 29499 ft 438 kts 124°
2026-05-01 12:37 55.20324 -1.38475 29679 ft 440 kts 124°
2026-05-01 12:38 55.18696 -1.33952 29934 ft 441 kts 126°
2026-05-01 12:38 55.17081 -1.29466 30258 ft 440 kts 126°
2026-05-01 12:38 55.15437 -1.24902 30606 ft 439 kts 126°
2026-05-01 12:38 55.13712 -1.20654 30953 ft 434 kts 134°
2026-05-01 12:39 55.11591 -1.16951 31226 ft 430 kts 142°
2026-05-01 12:39 55.09281 -1.13758 31564 ft 426 kts 146°
2026-05-01 12:39 55.07023 -1.10773 31830 ft 426 kts 144°
2026-05-01 12:39 55.04756 -1.07343 32109 ft 427 kts 139°
2026-05-01 12:40 55.02719 -1.03557 32313 ft 431 kts 132°
2026-05-01 12:40 55.00949 -0.99399 32674 ft 430 kts 127°
2026-05-01 12:40 54.99369 -0.94962 32971 ft 431 kts 123°
2026-05-01 12:40 54.98070 -0.90748 33140 ft 433 kts 120°
2026-05-01 12:41 54.97035 -0.86946 33274 ft 436 kts 117°
2026-05-01 12:41 54.96031 -0.82878 33533 ft 435 kts 116°
2026-05-01 12:41 54.94509 -0.76157 33860 ft 435 kts 114°
2026-05-01 12:41 54.93465 -0.71314 34115 ft 434 kts 114°
2026-05-01 12:42 54.92426 -0.66405 34421 ft 432 kts 114°
2026-05-01 12:42 54.91905 -0.63934 34485 ft 433 kts 114°
2026-05-01 12:42 54.90581 -0.57651 34738 ft 433 kts 114°
2026-05-01 12:42 54.89720 -0.53571 34886 ft 433 kts 114°
2026-05-01 12:43 54.88629 -0.48415 35100 ft 433 kts 114°
2026-05-01 12:43 54.87848 -0.44736 35230 ft 433 kts 114°
2026-05-01 12:43 54.86750 -0.39579 35453 ft 432 kts 114°
2026-05-01 12:43 54.85643 -0.34395 35642 ft 432 kts 114°
2026-05-01 12:44 54.84599 -0.29521 35798 ft 432 kts 115°
2026-05-01 12:44 54.83555 -0.24656 35982 ft 432 kts 115°
2026-05-01 12:44 54.81477 -0.15009 36348 ft 430 kts 115°
2026-05-01 12:45 54.79380 -0.05317 36639 ft 430 kts 114°
2026-05-01 12:45 54.78333 -0.00499 36807 ft 430 kts 114°
2026-05-01 12:45 54.77279 0.04339 36992 ft 430 kts 114°
2026-05-01 12:46 54.76237 0.09120 37142 ft 430 kts 114°
2026-05-01 12:46 54.75167 0.14006 37155 ft 432 kts 114°
2026-05-01 12:46 54.73053 0.23641 37159 ft 430 kts 114°
2026-05-01 12:47 54.70943 0.33206 37159 ft 428 kts 114°
2026-05-01 12:47 54.68809 0.42828 37159 ft 428 kts 114°
2026-05-01 12:48 54.66689 0.52349 37163 ft 430 kts 114°
2026-05-01 12:48 54.64549 0.61923 37168 ft 430 kts 114°
2026-05-01 12:49 54.62401 0.71494 37166 ft 430 kts 115°
2026-05-01 12:49 54.60244 0.81054 37167 ft 428 kts 115°
2026-05-01 12:50 54.58079 0.90592 37170 ft 428 kts 115°
2026-05-01 12:50 54.55918 1.00081 37175 ft 429 kts 115°
2026-05-01 12:51 54.53744 1.09596 37182 ft 429 kts 115°
2026-05-01 12:52 54.50471 1.23823 37186 ft 429 kts 115°
2026-05-01 12:52 54.47158 1.38116 37193 ft 429 kts 115°
2026-05-01 12:53 54.43839 1.52338 37196 ft 430 kts 115°
2026-05-01 12:54 54.41613 1.61825 37203 ft 430 kts 115°
2026-05-01 12:54 54.38277 1.75977 37208 ft 430 kts 115°
2026-05-01 12:55 54.34924 1.90111 37213 ft 430 kts 115°
2026-05-01 12:56 54.32671 1.99553 37211 ft 429 kts 115°
2026-05-01 12:56 54.30413 2.08971 37215 ft 430 kts 115°
2026-05-01 12:57 54.28150 2.18384 37217 ft 430 kts 115°
2026-05-01 12:57 54.24737 2.32484 37215 ft 431 kts 115°
2026-05-01 12:58 54.22457 2.41858 37217 ft 431 kts 115°
2026-05-01 12:59 54.19009 2.55942 37218 ft 430 kts 115°
2026-05-01 12:59 54.15557 2.69961 37220 ft 432 kts 116°
2026-05-01 13:00 54.12113 2.84151 37215 ft 431 kts 114°
2026-05-01 13:01 54.08939 2.98308 37214 ft 429 kts 114°
2026-05-01 13:02 54.05747 3.12355 37221 ft 433 kts 114°
2026-05-01 13:07 53.81415 4.15132 37251 ft 432 kts 114°
2026-05-01 13:08 53.79149 4.24454 37253 ft 432 kts 114°
2026-05-01 13:08 53.76860 4.33825 37252 ft 432 kts 114°
2026-05-01 13:09 53.74576 4.43132 37250 ft 432 kts 114°
2026-05-01 13:09 53.72276 4.52476 37248 ft 432 kts 113°
2026-05-01 13:10 53.69977 4.61779 37248 ft 432 kts 113°
2026-05-01 13:10 53.67748 4.70755 37254 ft 433 kts 114°
2026-05-01 13:11 53.65423 4.80068 37259 ft 433 kts 114°
2026-05-01 13:11 53.63179 4.89034 37261 ft 433 kts 114°
2026-05-01 13:12 53.60867 4.98229 37256 ft 431 kts 114°
2026-05-01 13:12 53.58435 5.07860 37264 ft 430 kts 114°
2026-05-01 13:13 53.56137 5.16923 37259 ft 433 kts 114°
2026-05-01 13:13 53.53806 5.26089 37263 ft 433 kts 114°
2026-05-01 13:14 53.51485 5.35169 37278 ft 432 kts 114°
2026-05-01 13:14 53.49166 5.44200 37273 ft 434 kts 114°
2026-05-01 13:15 53.46928 5.52889 37278 ft 435 kts 113°
2026-05-01 13:15 53.45227 5.59473 37272 ft 435 kts 113°
2026-05-01 13:16 53.42680 5.69290 37274 ft 435 kts 114°
2026-05-01 13:16 53.40066 5.79320 37274 ft 435 kts 114°
2026-05-01 13:17 53.35495 5.96735 37281 ft 433 kts 114°
2026-05-01 13:18 53.31689 6.11143 37278 ft 427 kts 114°
2026-05-01 13:18 53.29307 6.20115 37281 ft 430 kts 114°
2026-05-01 13:19 53.26872 6.29244 37281 ft 436 kts 114°
2026-05-01 13:20 53.23192 6.42971 37282 ft 434 kts 114°
2026-05-01 13:20 53.20736 6.52087 37284 ft 432 kts 113°
2026-05-01 13:21 53.17093 6.65555 37286 ft 434 kts 114°
2026-05-01 13:21 53.14613 6.74689 37290 ft 435 kts 114°
2026-05-01 13:22 53.12127 6.83803 37293 ft 433 kts 114°
2026-05-01 13:22 53.09654 6.92836 37288 ft 433 kts 114°
2026-05-01 13:23 53.07159 7.01907 37296 ft 432 kts 114°
2026-05-01 13:23 53.04662 7.10946 37299 ft 432 kts 114°
2026-05-01 13:24 53.02163 7.19958 37296 ft 432 kts 114°
2026-05-01 13:25 52.98396 7.33485 37297 ft 434 kts 114°
2026-05-01 13:25 52.95867 7.42519 37300 ft 434 kts 114°
2026-05-01 13:26 52.93355 7.51458 37294 ft 433 kts 114°
2026-05-01 13:26 52.90837 7.60384 37297 ft 432 kts 114°
2026-05-01 13:27 52.88309 7.69313 37299 ft 433 kts 114°
2026-05-01 13:27 52.84518 7.82637 37296 ft 434 kts 114°
2026-05-01 13:28 52.80713 7.95928 37296 ft 434 kts 114°
2026-05-01 13:29 52.75659 8.13473 37302 ft 432 kts 114°
2026-05-01 13:31 52.67952 8.39982 37314 ft 433 kts 114°
2026-05-01 13:32 52.61429 8.62186 37319 ft 432 kts 114°
2026-05-01 13:33 52.54904 8.84187 37320 ft 432 kts 115°
2026-05-01 13:34 52.49674 9.01685 37330 ft 431 kts 115°
2026-05-01 13:35 52.45725 9.14800 37331 ft 431 kts 115°
2026-05-01 13:36 52.41754 9.27917 37343 ft 431 kts 115°
2026-05-01 13:36 52.38235 9.39491 37347 ft 431 kts 115°
2026-05-01 13:37 52.35564 9.48238 37348 ft 431 kts 115°
2026-05-01 13:37 52.32468 9.58329 37346 ft 431 kts 115°
2026-05-01 13:38 52.28489 9.71254 37345 ft 431 kts 116°
2026-05-01 13:39 52.25819 9.79883 37338 ft 431 kts 116°
2026-05-01 13:39 52.23128 9.88547 37338 ft 431 kts 116°
2026-05-01 13:40 52.20437 9.97182 37347 ft 430 kts 116°
2026-05-01 13:40 52.17733 10.05832 37345 ft 431 kts 116°
2026-05-01 13:41 52.15479 10.13017 37347 ft 431 kts 116°
2026-05-01 13:41 52.12316 10.23057 37343 ft 431 kts 116°
2026-05-01 13:42 52.10043 10.30240 37344 ft 430 kts 116°
2026-05-01 13:42 52.06867 10.40242 37342 ft 430 kts 116°
2026-05-01 13:43 52.04143 10.48799 37339 ft 430 kts 116°
2026-05-01 13:43 52.01416 10.57339 37338 ft 430 kts 116°
2026-05-01 13:44 51.98675 10.65897 37346 ft 430 kts 116°
2026-05-01 13:44 51.95935 10.74417 37355 ft 430 kts 117°
2026-05-01 13:45 51.93190 10.82910 37358 ft 430 kts 116°
2026-05-01 13:45 51.90420 10.91464 37367 ft 431 kts 116°
2026-05-01 13:46 51.87657 10.99968 37366 ft 430 kts 116°
2026-05-01 13:46 51.84881 11.08479 37360 ft 429 kts 116°
2026-05-01 13:47 51.82102 11.16969 37354 ft 429 kts 116°
2026-05-01 13:47 51.79343 11.25375 37359 ft 429 kts 116°
2026-05-01 13:48 51.76557 11.33827 37360 ft 430 kts 116°
2026-05-01 13:48 51.73770 11.42251 37359 ft 430 kts 116°
2026-05-01 13:49 51.71431 11.49311 37353 ft 429 kts 116°
2026-05-01 13:49 51.68181 11.59072 37346 ft 428 kts 116°
2026-05-01 13:50 51.65395 11.67400 37344 ft 428 kts 117°
2026-05-01 13:50 51.62588 11.75780 37342 ft 429 kts 116°
2026-05-01 13:51 51.59767 11.84175 37347 ft 429 kts 116°
2026-05-01 13:51 51.56943 11.92536 37346 ft 430 kts 116°
2026-05-01 13:52 51.54133 12.00834 37347 ft 429 kts 116°
2026-05-01 13:52 51.51294 12.09194 37354 ft 427 kts 116°
2026-05-01 13:53 51.48487 12.17432 37360 ft 428 kts 116°
2026-05-01 13:53 51.44235 12.29851 37365 ft 429 kts 116°
2026-05-01 13:54 51.41374 12.38163 37365 ft 429 kts 116°
2026-05-01 13:54 51.38508 12.46474 37360 ft 429 kts 116°
2026-05-01 13:55 51.36124 12.53367 37352 ft 428 kts 116°
2026-05-01 13:55 51.32829 12.62873 37352 ft 429 kts 116°
2026-05-01 13:56 51.29985 12.71044 37361 ft 429 kts 116°
2026-05-01 13:56 51.27100 12.79298 37362 ft 430 kts 116°
2026-05-01 13:57 51.24675 12.86221 37365 ft 429 kts 116°
2026-05-01 13:57 51.21316 12.95770 37367 ft 428 kts 116°
2026-05-01 13:58 51.18419 13.03978 37369 ft 429 kts 116°
2026-05-01 13:58 51.15505 13.12210 37368 ft 430 kts 116°
2026-05-01 13:59 51.12593 13.20411 37364 ft 431 kts 116°
2026-05-01 13:59 51.09661 13.28648 37358 ft 429 kts 116°
2026-05-01 14:00 51.06771 13.36731 37351 ft 428 kts 116°
2026-05-01 14:00 51.03826 13.44944 37350 ft 428 kts 116°
2026-05-01 14:01 51.00911 13.53054 37352 ft 429 kts 116°
2026-05-01 14:01 50.97972 13.61195 37352 ft 429 kts 116°
2026-05-01 14:02 50.95036 13.69300 37355 ft 429 kts 116°
2026-05-01 14:02 50.92072 13.77463 37353 ft 429 kts 116°
2026-05-01 14:03 50.89125 13.85555 37348 ft 429 kts 116°
2026-05-01 14:03 50.87642 13.89619 36969 ft 429 kts 116°
2026-05-01 14:03 50.86170 13.93632 37321 ft 423 kts 117°
2026-05-01 14:04 50.82812 14.01278 37333 ft 435 kts 127°
2026-05-01 14:04 50.79321 14.06985 37352 ft 441 kts 133°
2026-05-01 14:05 50.76321 14.11297 37528 ft 445 kts 134°
2026-05-01 14:05 50.74012 14.14536 36990 ft 439 kts 135°
2026-05-01 14:05 50.71793 14.17637 37670 ft 423 kts 134°
2026-05-01 14:05 50.69633 14.20667 37531 ft 431 kts 134°
2026-05-01 14:06 50.67400 14.23831 37353 ft 436 kts 134°
2026-05-01 14:06 50.65195 14.26969 37345 ft 436 kts 134°
2026-05-01 14:06 50.60744 14.33315 37351 ft 437 kts 134°
2026-05-01 14:07 50.56300 14.39650 37351 ft 437 kts 134°
2026-05-01 14:08 50.49603 14.49179 37352 ft 437 kts 133°
2026-05-01 14:08 50.45182 14.55509 37347 ft 436 kts 131°
2026-05-01 14:08 50.43039 14.58879 37035 ft 434 kts 128°
2026-05-01 14:09 50.41022 14.62300 37693 ft 429 kts 127°
2026-05-01 14:09 50.39013 14.65826 36928 ft 440 kts 127°
2026-05-01 14:09 50.37030 14.69330 37233 ft 430 kts 127°
2026-05-01 14:09 50.35050 14.72803 37334 ft 432 kts 128°
2026-05-01 14:10 50.33033 14.76314 37336 ft 437 kts 128°
2026-05-01 14:10 50.28955 14.83317 37332 ft 440 kts 128°
2026-05-01 14:11 50.24845 14.90287 37329 ft 436 kts 128°
2026-05-01 14:11 50.18705 15.00633 37331 ft 437 kts 128°
2026-05-01 14:12 50.14601 15.07528 37326 ft 437 kts 128°
2026-05-01 14:12 50.10518 15.14370 37326 ft 436 kts 128°
2026-05-01 14:13 50.07089 15.20096 37326 ft 437 kts 128°
2026-05-01 14:13 50.02292 15.28081 37327 ft 436 kts 128°
2026-05-01 14:14 49.98183 15.34911 37327 ft 436 kts 128°
2026-05-01 14:14 49.94069 15.41732 37335 ft 435 kts 128°
2026-05-01 14:15 49.89962 15.48517 37330 ft 435 kts 128°
2026-05-01 14:15 49.85833 15.55324 37333 ft 436 kts 127°
2026-05-01 14:16 49.81694 15.62128 37333 ft 437 kts 127°
2026-05-01 14:16 49.77567 15.68895 37291 ft 437 kts 128°
2026-05-01 14:17 49.75486 15.72299 36854 ft 435 kts 128°
2026-05-01 14:17 49.73439 15.75643 36294 ft 435 kts 128°
2026-05-01 14:17 49.71376 15.79008 35856 ft 431 kts 128°
2026-05-01 14:17 49.69325 15.82348 35358 ft 430 kts 128°
2026-05-01 14:18 49.67291 15.85656 34846 ft 429 kts 127°
2026-05-01 14:18 49.65287 15.88911 34334 ft 428 kts 127°
2026-05-01 14:18 49.63271 15.92180 33817 ft 427 kts 127°
2026-05-01 14:18 49.61921 15.94368 33462 ft 426 kts 127°
2026-05-01 14:19 49.59217 15.98746 32767 ft 424 kts 127°
2026-05-01 14:19 49.57184 16.02032 32242 ft 422 kts 127°
2026-05-01 14:19 49.55199 16.05238 31728 ft 421 kts 127°
2026-05-01 14:19 49.53188 16.08480 31211 ft 419 kts 127°
2026-05-01 14:20 49.51174 16.11723 30690 ft 417 kts 127°
2026-05-01 14:20 49.47241 16.18043 29628 ft 410 kts 127°
2026-05-01 14:20 49.45281 16.21178 29133 ft 400 kts 127°
2026-05-01 14:21 49.43392 16.24191 28644 ft 390 kts 127°
2026-05-01 14:21 49.41546 16.27130 28163 ft 381 kts 127°
2026-05-01 14:21 49.39721 16.30038 27704 ft 373 kts 126°
2026-05-01 14:22 49.36193 16.35673 26776 ft 364 kts 126°
2026-05-01 14:22 49.34465 16.38433 26327 ft 359 kts 126°
2026-05-01 14:22 49.32759 16.41152 25881 ft 354 kts 126°
2026-05-01 14:22 49.31054 16.43864 25442 ft 350 kts 126°
2026-05-01 14:23 49.29388 16.46512 25001 ft 346 kts 126°
2026-05-01 14:23 49.27720 16.49164 24559 ft 344 kts 126°
2026-05-01 14:23 49.26085 16.51761 24125 ft 342 kts 126°
2026-05-01 14:23 49.24428 16.54390 23691 ft 340 kts 126°
2026-05-01 14:24 49.22794 16.56978 23263 ft 338 kts 126°
2026-05-01 14:24 49.21183 16.59527 22837 ft 337 kts 126°
2026-05-01 14:24 49.19559 16.62090 22413 ft 335 kts 126°
2026-05-01 14:24 49.17947 16.64634 21993 ft 333 kts 126°
2026-05-01 14:25 49.16336 16.67171 21568 ft 331 kts 127°
2026-05-01 14:25 49.14749 16.69672 21154 ft 329 kts 127°
2026-05-01 14:25 49.13176 16.72180 20736 ft 328 kts 126°
2026-05-01 14:25 49.11621 16.74691 20321 ft 326 kts 126°
2026-05-01 14:26 49.10074 16.77198 19910 ft 324 kts 126°
2026-05-01 14:26 49.07006 16.82157 19089 ft 321 kts 126°
2026-05-01 14:26 49.05473 16.84622 18727 ft 318 kts 126°
2026-05-01 14:27 49.04473 16.86225 18562 ft 314 kts 126°
2026-05-01 14:27 49.02483 16.89410 18219 ft 307 kts 126°
2026-05-01 14:27 49.01021 16.91750 17949 ft 305 kts 125°
2026-05-01 14:28 48.98596 16.95641 17551 ft 308 kts 125°
2026-05-01 14:28 48.96630 16.98801 17221 ft 310 kts 126°
2026-05-01 14:28 48.95134 17.01190 16961 ft 309 kts 126°
2026-05-01 14:28 48.93657 17.03541 16721 ft 308 kts 126°
2026-05-01 14:29 48.92183 17.05887 16469 ft 309 kts 125°
2026-05-01 14:29 48.90691 17.08265 16224 ft 310 kts 126°
2026-05-01 14:30 48.86204 17.15399 15484 ft 313 kts 126°
2026-05-01 14:30 48.84719 17.17756 15237 ft 313 kts 126°
2026-05-01 14:30 48.83217 17.20144 14990 ft 313 kts 126°
2026-05-01 14:31 48.80203 17.24945 14511 ft 314 kts 126°
2026-05-01 14:31 48.79208 17.26527 14349 ft 314 kts 126°
2026-05-01 14:31 48.77175 17.29761 14010 ft 316 kts 126°
2026-05-01 14:31 48.75665 17.32156 13757 ft 316 kts 126°
2026-05-01 14:32 48.74165 17.34532 13513 ft 314 kts 126°
2026-05-01 14:32 48.73159 17.36124 13353 ft 314 kts 126°
2026-05-01 14:32 48.71145 17.39309 13307 ft 316 kts 126°
2026-05-01 14:32 48.69628 17.41715 13300 ft 318 kts 126°
2026-05-01 14:33 48.68086 17.44151 13296 ft 317 kts 126°
2026-05-01 14:33 48.66579 17.46528 13300 ft 317 kts 126°
2026-05-01 14:33 48.65048 17.48944 13305 ft 319 kts 126°
2026-05-01 14:33 48.63508 17.51371 13300 ft 318 kts 126°
2026-05-01 14:34 48.61985 17.53768 13303 ft 319 kts 126°
2026-05-01 14:34 48.60445 17.56163 13296 ft 320 kts 127°
2026-05-01 14:34 48.58865 17.58561 13301 ft 320 kts 127°
2026-05-01 14:34 48.57283 17.60937 13295 ft 320 kts 128°
2026-05-01 14:35 48.55617 17.63127 13239 ft 324 kts 138°
2026-05-01 14:35 48.53604 17.64716 12996 ft 326 kts 152°
2026-05-01 14:35 48.51485 17.65776 12761 ft 322 kts 158°
2026-05-01 14:35 48.49329 17.66717 12511 ft 316 kts 158°
2026-05-01 14:36 48.47262 17.67666 12269 ft 311 kts 156°
2026-05-01 14:36 48.45221 17.68678 12023 ft 309 kts 155°
2026-05-01 14:36 48.43193 17.69735 11785 ft 310 kts 155°
2026-05-01 14:36 48.41158 17.70816 11547 ft 308 kts 155°
2026-05-01 14:37 48.39151 17.71882 11310 ft 306 kts 155°
2026-05-01 14:37 48.37136 17.72950 11058 ft 306 kts 155°
2026-05-01 14:37 48.35149 17.74000 10814 ft 304 kts 155°
2026-05-01 14:37 48.33146 17.75054 10566 ft 303 kts 155°
2026-05-01 14:38 48.31175 17.76090 10325 ft 301 kts 155°
2026-05-01 14:38 48.29186 17.77135 10081 ft 300 kts 155°
2026-05-01 14:38 48.27216 17.78097 9836 ft 301 kts 161°
2026-05-01 14:38 48.25151 17.78401 9586 ft 303 kts 182°
2026-05-01 14:39 48.23090 17.77875 9345 ft 301 kts 192°
2026-05-01 14:39 48.21062 17.77088 9096 ft 299 kts 193°
2026-05-01 14:39 48.19051 17.76342 8848 ft 297 kts 191°
2026-05-01 14:39 48.17031 17.75693 8596 ft 294 kts 189°
2026-05-01 14:40 48.15033 17.75110 8358 ft 293 kts 189°
2026-05-01 14:40 48.13042 17.74550 8109 ft 293 kts 189°
2026-05-01 14:40 48.11041 17.73989 7860 ft 291 kts 189°
2026-05-01 14:40 48.09072 17.73430 7615 ft 289 kts 189°
2026-05-01 14:41 48.07087 17.72862 7365 ft 286 kts 189°
2026-05-01 14:41 48.05159 17.72310 7122 ft 285 kts 189°
2026-05-01 14:41 48.03215 17.71754 6872 ft 283 kts 189°
2026-05-01 14:41 48.01283 17.71202 6623 ft 280 kts 190°
2026-05-01 14:42 47.99384 17.70659 6372 ft 278 kts 190°
2026-05-01 14:42 47.97504 17.70046 6116 ft 275 kts 197°
2026-05-01 14:42 47.95827 17.68761 5866 ft 270 kts 221°
2026-05-01 14:42 47.94508 17.66832 5619 ft 264 kts 230°
2026-05-01 14:43 47.93307 17.64784 5370 ft 259 kts 236°
2026-05-01 14:43 47.92545 17.62441 5120 ft 249 kts 264°
2026-05-01 14:43 47.92635 17.59975 4875 ft 237 kts 295°
2026-05-01 14:43 47.93474 17.57953 4646 ft 227 kts 315°
2026-05-01 14:44 47.94487 17.56154 4399 ft 227 kts 313°
2026-05-01 14:44 47.96568 17.52689 3978 ft 220 kts 319°
2026-05-01 14:44 47.97657 17.51040 3984 ft 224 kts 318°
2026-05-01 14:45 47.98736 17.49379 3991 ft 223 kts 318°
2026-05-01 14:45 48.00880 17.46100 3986 ft 218 kts 318°
2026-05-01 14:45 48.01929 17.44491 3993 ft 212 kts 319°
2026-05-01 14:46 48.02957 17.42920 3978 ft 213 kts 319°
2026-05-01 14:46 48.05008 17.39769 3475 ft 205 kts 318°
2026-05-01 14:46 48.05985 17.38269 3177 ft 201 kts 318°
2026-05-01 14:47 48.06946 17.36791 2886 ft 192 kts 318°
2026-05-01 14:47 48.07840 17.35411 2626 ft 176 kts 319°
2026-05-01 14:47 48.08382 17.34579 2489 ft 165 kts 317°